"2010-05-04 00:00:00",81100,6.069,306.6,4.311,1.268,14.46,105.1818,12.54,13.71,26.54,0,110.4,13.32,13.33,268.6
"2010-05-04 00:00:30",81101,7.07,295.7,7.345,1.185,15.01,105.1818,12.54,13.81,26.56,0,110.4,13.31,13.33,257.7
"2010-05-04 00:01:00",81102,7.206,302.3,9.56,1.393,14.51,105.1813,12.54,13.63,26.54,0,110.4,13.31,13.33,264.3
"2010-05-04 00:01:30",81103,7.358,295.5,6.95,1.558,13.74,105.1753,12.52,13.68,26.56,0,110.4,13.31,13.32,257.5
"2010-05-04 00:02:00",81104,6.394,298.8,11.65,0.945,13.03,105.1641,12.49,13.68,26.08,0,110.4,13.31,13.29,260.8
"2010-05-04 00:02:30",81105,4.811,299.8,6.236,0.389,11.48,105.1559,12.47,13.54,25.87,0,110.4,13.34,13.27,261.8
"2010-05-04 00:03:00",81106,4.546,298.6,4.646,0.2,11.62,105.1483,12.45,13.52,25.93,0,110.4,13.35,13.25,260.6
"2010-05-04 00:03:30",81107,5.271,302.1,4.491,0.61,12.37,105.1495,12.46,13.63,26.2,0,110.4,13.31,13.25,264.1
"2010-05-04 00:04:00",81108,5.876,308.7,9.95,1.594,13.81,105.1474,12.45,13.52,26.48,0,110.4,13.31,13.25,270.7
"2010-05-04 00:04:30",81109,5.753,304.4,7.219,1.372,13.33,105.1474,12.45,13.49,26.79,0,110.4,13.31,13.25,266.4
"2010-05-04 00:05:00",81110,5.956,301.5,7.387,1.466,14.09,105.1471,12.45,13.67,26.39,0,110.4,13.31,13.24,263.5
"2010-05-04 00:05:30",81111,7.792,300.8,6.901,1.457,14.08,105.1465,12.45,13.58,26.19,0,110.4,13.31,13.24,262.8
"2010-05-04 00:06:00",81112,8.13,306.4,6.49,1.365,14.97,105.1471,12.45,13.75,26.4,0,110.4,13.31,13.24,268.4
"2010-05-04 00:06:30",81113,7.594,300.9,6.1,1.19,13.25,105.1486,12.45,13.55,25.87,0,110.4,13.31,13.25,262.9
"2010-05-04 00:07:00",81114,6.275,294.5,2.264,0.178,11.56,105.1489,12.45,13.52,25.5,0,110.4,13.35,13.25,256.5
"2010-05-04 00:07:30",81115,6.211,287.1,1.673,0.168,11.58,105.1498,12.46,13.47,25.45,0,110.4,13.35,13.25,249.1
"2010-05-04 00:08:00",81116,6.114,291.3,8.04,0.967,12.94,105.151,12.46,13.63,25.8,0,110.4,13.32,13.25,253.3
"2010-05-04 00:08:30",81117,6.708,290.3,6.701,1.064,13.36,105.1507,12.46,13.52,25.86,0,110.4,13.32,13.25,252.3
"2010-05-04 00:09:00",81118,6.283,293.3,7.501,0.969,13.63,105.1473,12.45,13.63,26.33,0,110.4,13.32,13.24,255.3
"2010-05-04 00:09:30",81119,6.343,295.7,4.758,1.128,12.89,105.14,12.43,13.48,26.58,0,110.4,13.32,13.23,257.7
"2010-05-04 00:10:00",81120,6.702,305.4,7.93,1.03,14.18,105.1408,12.43,13.54,26.89,0,110.4,13.32,13.23,267.4
"2010-05-04 00:10:30",81121,4.456,296.7,5.373,0.602,11.96,105.1389,12.43,13.58,26.86,0,110.4,13.32,13.22,258.7
"2010-05-04 00:11:00",81122,6.619,298.5,6.284,0.929,13.78,105.1383,12.43,13.68,26.55,0,110.4,13.32,13.22,260.5
"2010-05-04 00:11:30",81123,7.294,300.9,6.318,1.378,13.29,105.142,12.44,13.5,25.87,0,110.4,13.32,13.23,262.9
"2010-05-04 00:12:00",81124,7.19,295.9,3.425,0.425,11.4,105.1462,12.45,13.5,25.63,0,110.4,13.36,13.24,257.9
"2010-05-04 00:12:30",81125,6.798,291.1,2.156,0.412,11.31,105.1519,12.46,13.46,25.81,0,110.4,13.36,13.26,253.1
"2010-05-04 00:13:00",81126,5.769,282.4,6.864,0.408,11.54,105.1492,12.45,13.46,25.73,0,110.4,13.36,13.25,244.4
"2010-05-04 00:13:30",81127,5.857,278.1,2.136,0.316,11.84,105.1465,12.45,13.46,25.74,0,110.4,13.36,13.24,240.1
"2010-05-04 00:14:00",81128,5.643,283.8,3.436,0.283,11.99,105.158,12.48,13.48,25.3,0,110.4,13.36,13.27,245.8
"2010-05-04 00:14:30",81129,5.475,281.8,5.064,0.171,12.21,105.1795,12.53,13.49,25.41,0,110.4,13.36,13.33,243.8
"2010-05-04 00:15:00",81130,5.425,282.6,4.338,0.493,12.3,105.1777,12.53,13.51,25.47,0,110.4,13.36,13.32,244.6
"2010-05-04 00:15:30",81131,6.046,289.3,7.441,0.357,12.4,105.181,12.54,13.55,25.98,0,110.4,13.36,13.33,251.3
"2010-05-04 00:16:00",81132,5.746,286,6.103,0.368,12.63,105.2049,12.6,13.54,25.66,0,110.4,13.36,13.39,248.0
"2010-05-04 00:16:30",81133,6.046,274.6,4.629,0.363,12.71,105.2097,12.61,13.58,25.56,0,110.4,13.36,13.41,236.6
"2010-05-04 00:17:00",81134,6.86,272.2,2.854,0.735,12.79,105.2261,12.65,13.58,25.65,0,110.4,13.36,13.45,234.2
"2010-05-04 00:17:30",81135,6.176,275.9,4.356,0.441,13.08,105.2436,12.7,13.72,25.75,0,110.4,13.36,13.49,237.9
"2010-05-04 00:18:00",81136,7.674,282.2,4.733,1.192,14.93,105.245,12.7,13.73,25.72,0,110.4,13.32,13.50,244.2
"2010-05-04 00:18:30",81137,6.563,274.8,3.228,0.297,12.95,105.2735,12.77,13.78,25.77,0,110.4,13.35,13.57,236.8
"2010-05-04 00:19:00",81138,5.971,276.3,2.848,0.305,12.71,105.2774,12.78,13.7,25.7,0,110.4,13.35,13.58,238.3
"2010-05-04 00:19:30",81139,7.593,299.9,5.315,1.299,16.34,105.2825,12.8,14.02,26.06,0,110.4,13.31,13.59,261.9
"2010-05-04 00:20:00",81140,8.42,313.5,5.677,0.888,17.07,105.3084,12.86,14.1,26.11,0,110.4,13.31,13.66,275.5
"2010-05-04 00:20:30",81141,5.707,301.1,7.061,1.292,12.78,105.3112,12.87,13.85,25.79,0,110.4,13.31,13.67,263.1
"2010-05-04 00:21:00",81142,7.118,284.7,5.16,0.739,11.27,105.3112,12.87,13.8,25.69,0,110.4,13.34,13.67,246.7
"2010-05-04 00:21:30",81143,6.578,281.5,4.494,0.506,11.31,105.3129,12.87,13.82,25.68,0,110.4,13.34,13.67,243.5
"2010-05-04 00:22:00",81144,5.449,291.7,5.552,0.489,11.4,105.3208,12.89,13.83,25.64,0,110.4,13.35,13.69,253.7
"2010-05-04 00:22:30",81145,4.685,300.2,2.027,0.802,11.68,105.3346,12.93,13.86,25.6,0,110.4,13.35,13.73,262.2
"2010-05-04 00:23:00",81146,5.005,299.9,8.45,0.971,12.12,105.3425,12.95,13.92,25.62,0,110.4,13.31,13.75,261.9
"2010-05-04 00:23:30",81147,7.544,296.6,10.69,1.43,14.63,105.3445,12.95,13.96,25.59,0,110.4,13.31,13.75,258.6
"2010-05-04 00:24:00",81148,6.563,295.1,13.23,0.633,12.49,105.3448,12.95,13.87,25.4,0,110.4,13.35,13.75,257.1
"2010-05-04 00:24:30",81149,6.428,304.4,6.282,0.889,12.97,105.3445,12.95,13.88,25.43,0,110.4,13.31,13.75,266.4
"2010-05-04 00:25:00",81150,7.366,304.7,7.766,1.222,16.47,105.3448,12.95,14.21,25.74,0,110.4,13.31,13.75,266.7
"2010-05-04 00:25:30",81151,7.297,296,7.938,1.15,15.58,105.3436,12.95,14.2,25.82,0,110.4,13.31,13.75,258.0
"2010-05-04 00:26:00",81152,6.147,273.9,5.83,0.75,13.06,105.3425,12.95,14.04,25.93,0,110.4,13.31,13.75,235.9
"2010-05-04 00:26:30",81153,4.653,273.7,10.55,0.502,10.83,105.3405,12.94,13.89,25.9,0,110.4,13.35,13.74,235.7
"2010-05-04 00:27:00",81154,5.156,284.3,7.769,1.102,10.8,105.3417,12.95,13.88,26.04,0,110.4,13.35,13.74,246.3
"2010-05-04 00:27:30",81155,6.174,269.3,4.064,0.312,11.05,105.3431,12.95,13.89,26,0,110.4,13.35,13.75,231.3
"2010-05-04 00:28:00",81156,5.398,272.6,10.88,0.428,11.44,105.3434,12.95,13.89,25.64,0,110.4,13.35,13.75,234.6
"2010-05-04 00:28:30",81157,6.189,289.8,4.587,0.503,11.71,105.3433,12.95,13.89,25.42,0,110.4,13.35,13.75,251.8
"2010-05-04 00:29:00",81158,6.43,289.8,6.182,0.455,12.12,105.3436,12.95,13.89,25.23,0,110.4,13.35,13.75,251.8
"2010-05-04 00:29:30",81159,5.747,290,8.98,0.268,12.24,105.3418,12.95,13.9,25.18,0,110.4,13.35,13.74,252.0
"2010-05-04 00:30:00",81160,5.778,291.7,8.01,0.56,12.46,105.3406,12.94,13.91,25.41,0,110.4,13.35,13.74,253.7
"2010-05-04 00:30:30",81161,4.797,295.6,10.43,0.553,12.57,105.3388,12.94,13.93,25.53,0,110.4,13.35,13.74,257.6
"2010-05-04 00:31:00",81162,5.302,282.4,9.19,0.436,12.74,105.3402,12.94,13.93,25.51,0,110.4,13.35,13.74,244.4
"2010-05-04 00:31:30",81163,5.802,273.5,6.413,0.626,12.82,105.3581,12.99,13.94,25.41,0,110.4,13.35,13.79,235.5
"2010-05-04 00:32:00",81164,6.673,273.3,7.123,0.553,12.9,105.3649,13.01,13.95,25.51,0,110.4,13.35,13.80,235.3
"2010-05-04 00:32:30",81165,5.918,272.8,5.809,1.114,12.94,105.3611,13,13.96,25.51,0,110.4,13.35,13.79,234.8
"2010-05-04 00:33:00",81166,3.544,280.5,12.38,0.612,12.86,105.3545,12.98,13.97,25.51,0,110.4,13.35,13.78,242.5
"2010-05-04 00:33:30",81167,4.588,261.2,9.49,0.618,12.93,105.3497,12.97,13.98,25.59,0,110.4,13.35,13.76,223.2
"2010-05-04 00:34:00",81168,4.409,252.4,6.505,0.511,12.92,105.3543,12.98,13.99,25.66,0,110.4,13.35,13.78,214.4
"2010-05-04 00:34:30",81169,3.854,270.9,9.15,0.505,12.92,105.3548,12.98,13.98,25.68,0,110.4,13.34,13.78,232.9
"2010-05-04 00:35:00",81170,3.766,276.2,7.206,0.661,12.96,105.3447,12.95,13.96,25.83,0,110.4,13.34,13.75,238.2
"2010-05-04 00:35:30",81171,3.711,275.1,10.05,0.536,12.89,105.3604,13,13.97,26.02,0,110.4,13.34,13.79,237.1
"2010-05-04 00:36:00",81172,3.971,278.2,7.524,0.406,12.93,105.3734,13.03,13.98,25.97,0,110.4,13.34,13.83,240.2
"2010-05-04 00:36:30",81173,4.176,283.6,4.548,0.932,12.89,105.3771,13.04,14.01,25.8,0,110.4,13.34,13.84,245.6
"2010-05-04 00:37:00",81174,6.662,266.8,5.35,1.135,13.29,105.3779,13.04,14.02,25.14,0,110.4,13.34,13.84,228.8
"2010-05-04 00:37:30",81175,7.396,269.8,7.715,0.447,13.4,105.3982,13.09,14.03,24.67,0,110.4,13.33,13.89,231.8
"2010-05-04 00:38:00",81176,7.497,269.9,7.437,0.941,13.57,105.4109,13.12,14.1,24.59,0,110.5,13.33,13.92,231.9
"2010-05-04 00:38:30",81177,7.352,281.3,10.04,1.941,15.66,105.4109,13.12,14.16,24.59,0,110.4,13.3,13.92,243.3
"2010-05-04 00:39:00",81178,6.44,280.2,5.999,1.139,14.97,105.4306,13.17,14.29,24.94,0,110.5,13.3,13.97,242.2
"2010-05-04 00:39:30",81179,6.102,277,3.311,0.481,12.78,105.4444,13.21,14.12,24.72,0,110.5,13.34,14.01,239.0
"2010-05-04 00:40:00",81180,6.451,279.2,9.58,0.361,12.75,105.4447,13.21,14.14,24.67,0,110.5,13.34,14.01,241.2
"2010-05-04 00:40:30",81181,5.145,267,5.286,0.559,12.92,105.4447,13.21,14.16,24.1,0,110.5,13.34,14.01,229.0
"2010-05-04 00:41:00",81182,6.012,281.9,9.39,1.001,13.81,105.4582,13.25,14.23,24.11,0,110.5,13.3,14.04,243.9
"2010-05-04 00:41:30",81183,8.01,284.2,10.81,1.089,17.41,105.4765,13.29,14.51,24.46,0,110.5,13.3,14.09,246.2
"2010-05-04 00:42:00",81184,7.121,316.8,6.369,1.152,16.14,105.4785,13.3,14.47,24.95,0,110.5,13.3,14.10,278.8
"2010-05-04 00:42:30",81185,4.259,287.8,13.39,1.009,11.92,105.4785,13.3,14.21,24.72,0,110.5,13.3,14.10,249.8
"2010-05-04 00:43:00",81186,4.054,288.7,7.267,0.422,11.49,105.4785,13.3,14.22,24.73,0,110.5,13.33,14.10,250.7
"2010-05-04 00:43:30",81187,4.418,280.1,7.537,1.634,13.41,105.4785,13.3,14.4,24.95,0,110.5,13.29,14.10,242.1
"2010-05-04 00:44:00",81188,3.617,280.8,14.81,1.539,12.46,105.4593,13.25,14.29,25,0,110.5,13.29,14.05,242.8
"2010-05-04 00:44:30",81189,3.161,254.5,5.592,0.634,12.55,105.4444,13.21,14.31,25.03,0,110.5,13.29,14.01,216.5
"2010-05-04 00:45:00",81190,5.118,268.7,4.663,0.826,11.89,105.4444,13.21,14.19,24.83,0,110.5,13.33,14.01,230.7
"2010-05-04 00:45:30",81191,4.942,262.5,5.862,0.826,12.24,105.4447,13.21,14.19,24.82,0,110.5,13.33,14.01,224.5
"2010-05-04 00:46:00",81192,4.308,256.5,2.888,0.253,12.59,105.4438,13.21,14.18,24.6,0,110.5,13.33,14.01,218.5
"2010-05-04 00:46:30",81193,4.651,274.2,10.68,1.394,15.47,105.4266,13.16,14.37,25.16,0,110.5,13.29,13.96,236.2
"2010-05-04 00:47:00",81194,4.239,291,11.88,1.387,15.72,105.4097,13.12,14.31,25.67,0,110.5,13.29,13.92,253.0
"2010-05-04 00:47:30",81195,3.824,291.5,7.536,0.627,12.73,105.403,13.1,14.27,25.77,0,110.5,13.29,13.90,253.5
"2010-05-04 00:48:00",81196,5.831,304.3,8.11,1.181,13.86,105.392,13.08,14.16,25.46,0,110.5,13.29,13.87,266.3
"2010-05-04 00:48:30",81197,4.463,290.6,7.003,0.365,11.75,105.3801,13.05,14.08,25.23,0,110.5,13.33,13.84,252.6
"2010-05-04 00:49:00",81198,5.827,270.7,5.082,0.868,12.66,105.3768,13.04,14.23,25.33,0,110.5,13.29,13.83,232.7
"2010-05-04 00:49:30",81199,4.842,273.8,6.865,1.501,13.6,105.3771,13.04,14.08,25.23,0,110.5,13.29,13.84,235.8
"2010-05-04 00:50:00",81200,5.751,275.6,5.685,0.783,12.06,105.3695,13.02,14.1,25.31,0,110.5,13.33,13.82,237.6
"2010-05-04 00:50:30",81201,5.577,272.1,4.484,1.097,12.2,105.352,12.97,14.03,25.3,0,110.5,13.33,13.77,234.1
"2010-05-04 00:51:00",81202,4.89,276.3,3.984,0.437,12.62,105.3433,12.95,14.01,25.12,0,110.5,13.33,13.75,238.3
"2010-05-04 00:51:30",81203,6.145,272.7,6.853,1.293,14.42,105.3433,12.95,14.19,25.3,0,110.5,13.29,13.75,234.7
"2010-05-04 00:52:00",81204,6.536,257.6,7.881,1.144,16.08,105.3433,12.95,14.18,25.58,0,110.5,13.29,13.75,219.6
"2010-05-04 00:52:30",81205,5.895,265.8,8.42,1.574,14.08,105.3433,12.95,14.07,25.43,0,110.5,13.29,13.75,227.8
"2010-05-04 00:53:00",81206,4.79,271.2,7.957,0.987,12.61,105.3365,12.93,14.07,25.47,0,110.5,13.29,13.73,233.2
"2010-05-04 00:53:30",81207,5.849,267.3,9.02,1.316,13.68,105.3173,12.88,14,25.53,0,110.5,13.29,13.68,229.3
"2010-05-04 00:54:00",81208,5.671,265.1,6.095,1.564,14.42,105.3097,12.87,14.04,25.64,0,110.5,13.29,13.66,227.1
"2010-05-04 00:54:30",81209,5.478,277.4,12.29,0.915,12.07,105.3094,12.86,14.02,25.71,0,110.5,13.29,13.66,239.4
"2010-05-04 00:55:00",81210,6.687,274.2,8.66,1.182,14.38,105.3094,12.86,13.99,25.55,0,110.5,13.29,13.66,236.2
"2010-05-04 00:55:30",81211,6.703,278.8,5.588,0.397,12.23,105.3094,12.86,13.91,25.5,0,110.5,13.33,13.66,240.8
"2010-05-04 00:56:00",81212,6.4,284.6,3.462,0.502,12.48,105.3094,12.86,13.9,25.51,0,110.5,13.33,13.66,246.6
"2010-05-04 00:56:30",81213,5.378,284.7,7.261,0.988,14.08,105.3094,12.86,13.98,25.64,0,110.5,13.3,13.66,246.7
"2010-05-04 00:57:00",81214,5.99,288.5,7.642,1.291,16.48,105.3094,12.86,14.16,25.81,0,110.5,13.3,13.66,250.5
"2010-05-04 00:57:30",81215,3.747,270.1,7.138,0.963,13.39,105.3094,12.86,13.93,25.72,0,110.5,13.3,13.66,232.1
"2010-05-04 00:58:00",81216,4.365,272.7,5.202,0.374,12.03,105.3092,12.86,13.87,25.73,0,110.5,13.34,13.66,234.7
"2010-05-04 00:58:30",81217,4.399,273.7,8.35,1.14,12.99,105.3052,12.85,14.02,25.77,0,110.4,13.3,13.65,235.7
"2010-05-04 00:59:00",81218,4.41,265.9,16.67,1.363,12.98,105.3024,12.85,13.91,25.63,0,110.5,13.3,13.64,227.9
"2010-05-04 00:59:30",81219,3.914,246.1,12.13,1.034,14.42,105.2993,12.84,13.98,25.65,0,110.5,13.3,13.64,208.1
"2010-05-04 01:00:00",81220,2.284,236.1,7.448,0.25,12.42,105.2849,12.8,13.99,25.71,0,110.5,13.3,13.60,198.1
"2010-05-04 01:00:30",81221,2.645,244,7.921,0.656,12.51,105.2829,12.8,13.88,25.59,0,110.4,13.3,13.59,206.0
"2010-05-04 01:01:00",81222,2.52,241.6,5.448,0.67,11.97,105.2852,12.8,13.82,25.6,0,110.4,13.34,13.60,203.6
"2010-05-04 01:01:30",81223,3.943,255.3,9.68,0.209,12.12,105.279,12.79,13.81,25.9,0,110.4,13.34,13.58,217.3
"2010-05-04 01:02:00",81224,3.647,276.7,5.901,0.547,12.41,105.2756,12.78,13.79,25.92,0,110.4,13.34,13.57,238.7
"2010-05-04 01:02:30",81225,3.418,277.4,9.74,0.275,12.67,105.2756,12.78,13.8,25.89,0,110.4,13.34,13.57,239.4
"2010-05-04 01:03:00",81226,3.018,273.1,2.816,0.332,12.89,105.2756,12.78,13.79,25.99,0,110.4,13.34,13.57,235.1
"2010-05-04 01:03:30",81227,6.094,272.8,11.64,1.327,17.07,105.2756,12.78,14.02,26.26,0,110.4,13.31,13.57,234.8
"2010-05-04 01:04:00",81228,5.21,252.3,10.18,1.357,15.36,105.2756,12.78,13.98,26.32,0,110.4,13.31,13.57,214.3
"2010-05-04 01:04:30",81229,3.945,252.5,9.51,0.366,12.23,105.2756,12.78,13.8,26.07,0,110.4,13.34,13.57,214.5
"2010-05-04 01:05:00",81230,3.908,274.4,22.07,0.458,11.88,105.2756,12.78,13.79,25.88,0,110.4,13.34,13.57,236.4
"2010-05-04 01:05:30",81231,3.825,284.4,13.05,0.509,11.82,105.2813,12.79,13.8,25.78,0,110.4,13.34,13.59,246.4
"2010-05-04 01:06:00",81232,4.592,263.8,3.925,0.649,12,105.2993,12.84,13.8,25.84,0,110.4,13.34,13.64,225.8
"2010-05-04 01:06:30",81233,5.935,266.3,6.223,1.225,12.3,105.308,12.86,13.82,25.73,0,110.4,13.34,13.66,228.3
"2010-05-04 01:07:00",81234,6.098,274.7,8.06,0.735,12.53,105.3094,12.86,13.83,25.53,0,110.4,13.34,13.66,236.7
"2010-05-04 01:07:30",81235,6.212,288.2,5.876,1.13,13.61,105.3097,12.87,13.85,25.73,0,110.4,13.31,13.66,250.2
"2010-05-04 01:08:00",81236,7.071,291.6,15.24,1.492,16.04,105.3227,12.9,14.15,25.62,0,110.4,13.31,13.70,253.6
"2010-05-04 01:08:30",81237,6.089,280.3,7.979,1.039,14.01,105.3427,12.95,14.02,25.27,0,110.4,13.3,13.75,242.3
"2010-05-04 01:09:00",81238,4.961,282.4,4.234,0.343,12.52,105.3433,12.95,13.9,25.2,0,110.4,13.34,13.75,244.4
"2010-05-04 01:09:30",81239,4.652,288.4,13.33,0.656,12.42,105.3545,12.98,13.91,25.29,0,110.4,13.34,13.78,250.4
"2010-05-04 01:10:00",81240,5.209,306.7,7.29,0.97,13.71,105.3748,13.03,14.08,25.66,0,110.4,13.3,13.83,268.7
"2010-05-04 01:10:30",81241,5.775,298.3,8.97,1.542,16.12,105.3774,13.04,14.22,25.79,0,110.4,13.3,13.84,260.3
"2010-05-04 01:11:00",81242,5.253,277.3,9.03,0.77,13.21,105.3774,13.04,14.08,25.8,0,110.4,13.3,13.84,239.3
"2010-05-04 01:11:30",81243,4.212,273.8,4.88,0.329,12.1,105.3771,13.04,14,25.73,0,110.4,13.33,13.84,235.8
"2010-05-04 01:12:00",81244,4.348,281.6,5.14,0.58,11.9,105.3773,13.04,14.02,25.68,0,110.4,13.33,13.84,243.6
"2010-05-04 01:12:30",81245,4.016,274.8,3.155,0.574,12.02,105.3782,13.04,14.02,25.77,0,110.4,13.34,13.84,236.8
"2010-05-04 01:13:00",81246,5.661,288.8,8.33,1.691,14.78,105.3791,13.04,14.23,25.92,0,110.4,13.31,13.84,250.8
"2010-05-04 01:13:30",81247,5.991,274,6.597,0.737,12.87,105.3776,13.04,14.14,25.21,0,110.4,13.31,13.84,236.0
"2010-05-04 01:14:00",81248,7.197,274.3,5.228,1.368,14.05,105.3779,13.04,14.21,25.14,0,110.4,13.31,13.84,236.3
"2010-05-04 01:14:30",81249,6.785,268.6,4.183,1.057,12.88,105.3791,13.04,14.06,24.93,0,110.4,13.31,13.84,230.6
"2010-05-04 01:15:00",81250,6.313,271,3.439,0.234,12.5,105.3796,13.04,14.06,24.88,0,110.4,13.34,13.84,233.0
"2010-05-04 01:15:30",81251,5.994,281.8,2.534,0.222,12.72,105.3853,13.06,14.06,24.93,0,110.4,13.34,13.86,243.8
"2010-05-04 01:16:00",81252,6.137,275.1,2.526,0.325,12.99,105.3907,13.07,14.08,24.96,0,110.4,13.34,13.87,237.1
"2010-05-04 01:16:30",81253,6.338,276.5,2.287,0.517,13.17,105.3996,13.1,14.07,24.97,0,110.4,13.34,13.89,238.5
"2010-05-04 01:17:00",81254,7.885,274,6.133,1.286,14.9,105.4109,13.12,14.16,25.21,0,110.4,13.31,13.92,236.0
"2010-05-04 01:17:30",81255,8.81,282.5,5.355,1.39,17.2,105.4121,13.13,14.37,25.34,0,110.4,13.31,13.93,244.5
"2010-05-04 01:18:00",81256,6.275,272.7,5.675,1.017,13.81,105.4118,13.13,14.15,25.08,0,110.4,13.31,13.92,234.7
"2010-05-04 01:18:30",81257,5.908,268.3,3.717,0.63,12.25,105.4124,13.13,14.12,24.67,0,110.4,13.34,13.93,230.3
"2010-05-04 01:19:00",81258,7.226,267,6.1,0.981,13.88,105.4127,13.13,14.31,24.97,0,110.4,13.31,13.93,229.0
"2010-05-04 01:19:30",81259,6.776,263,6.195,1.143,13.1,105.413,13.13,14.14,24.83,0,110.4,13.31,13.93,225.0
"2010-05-04 01:20:00",81260,6.532,262.9,2.792,0.233,12.11,105.4146,13.13,14.15,24.82,0,110.4,13.34,13.93,224.9
"2010-05-04 01:20:30",81261,6.205,258.4,1.499,0.433,12.36,105.427,13.17,14.22,24.82,0,110.4,13.34,13.96,220.4
"2010-05-04 01:21:00",81262,7.074,267.3,5.893,1.14,14.54,105.4428,13.21,14.24,24.3,0,110.4,13.31,14.00,229.3
"2010-05-04 01:21:30",81263,6.565,259.4,2.467,0.201,12.77,105.4456,13.21,14.17,24.26,0,110.4,13.34,14.01,221.4
"2010-05-04 01:22:00",81264,6.943,263.2,1.465,0.251,12.94,105.4456,13.21,14.16,24.34,0,110.4,13.34,14.01,225.2
"2010-05-04 01:22:30",81265,6.884,259.7,2.594,0.277,13.12,105.4456,13.21,14.21,24.76,0,110.4,13.34,14.01,221.7
"2010-05-04 01:23:00",81266,7.217,260.9,1.537,0.165,13.34,105.4458,13.21,14.22,24.73,0,110.4,13.34,14.01,222.9
"2010-05-04 01:23:30",81267,7.12,263.5,0.922,0.084,13.62,105.4588,13.25,14.24,24.72,0,110.4,13.34,14.05,225.5
"2010-05-04 01:24:00",81268,8.39,269.5,5.768,1.524,15.99,105.4746,13.29,14.35,24.88,0,110.4,13.3,14.09,231.5
"2010-05-04 01:24:30",81269,9.01,273.9,6.41,1.295,17.49,105.4785,13.3,14.55,24.54,0,110.4,13.3,14.10,235.9
"2010-05-04 01:25:00",81270,9.73,279.9,2.942,0.834,17.92,105.4785,13.3,14.54,24.55,0,110.4,13.3,14.10,241.9
"2010-05-04 01:25:30",81271,7.447,269.3,1.887,0.681,12.45,105.4785,13.3,14.29,24.48,0,110.4,13.3,14.10,231.3
"2010-05-04 01:26:00",81272,8.15,268.4,5.033,1.115,12.5,105.4797,13.3,14.3,24.24,0,110.4,13.29,14.10,230.4
"2010-05-04 01:26:30",81273,8.38,274.1,6.013,1.101,13.95,105.4904,13.33,14.47,24.37,0,110.4,13.29,14.13,236.1
"2010-05-04 01:27:00",81274,7.737,269.4,4.776,1.197,12.71,105.5047,13.36,14.32,24.11,0,110.4,13.29,14.16,231.4
"2010-05-04 01:27:30",81275,7.162,266.7,3.458,0.281,12.54,105.5126,13.38,14.33,24.24,0,110.4,13.33,14.18,228.7
"2010-05-04 01:28:00",81276,7.763,260.1,4.596,0.429,13.14,105.5123,13.38,14.35,23.64,0,110.4,13.33,14.18,222.1
"2010-05-04 01:28:30",81277,7.257,266.4,7.548,0.692,13.29,105.5126,13.38,14.35,23.72,0,110.4,13.33,14.18,228.4
"2010-05-04 01:29:00",81278,8.26,263,5.079,0.636,13.48,105.5126,13.38,14.36,23.94,0,110.4,13.33,14.18,225.0
"2010-05-04 01:29:30",81279,6.237,254.4,3.449,0.793,14.24,105.5123,13.38,14.38,23.37,0,110.4,13.31,14.18,216.4
"2010-05-04 01:30:00",81280,6.212,251.1,4.508,1.348,15.79,105.5123,13.38,14.53,23.3,0,110.4,13.31,14.18,213.1
"2010-05-04 01:30:30",81281,7.746,259.8,6.846,1.007,17.9,105.5126,13.38,14.69,23.34,0,110.4,13.31,14.18,221.8
"2010-05-04 01:31:00",81282,7.265,261,5.69,1.253,15.73,105.5157,13.39,14.54,23.08,0,110.4,13.3,14.19,223.0
"2010-05-04 01:31:30",81283,5.785,257.5,2.069,0.449,12.46,105.5253,13.42,14.41,22.92,0,110.4,13.34,14.22,219.5
"2010-05-04 01:32:00",81284,5.31,266.4,7.035,0.802,12.16,105.5357,13.44,14.46,22.98,0,110.4,13.3,14.24,228.4
"2010-05-04 01:32:30",81285,6.503,275.6,6.025,1.579,14.43,105.5447,13.47,14.53,23.06,0,110.4,13.3,14.27,237.6
"2010-05-04 01:33:00",81286,4.516,280.8,7.771,0.236,12.43,105.5462,13.47,14.42,22.97,0,110.4,13.34,14.27,242.8
"2010-05-04 01:33:30",81287,4.334,285.3,4.555,0.309,12.61,105.5465,13.47,14.44,23.03,0,110.4,13.34,14.27,247.3
"2010-05-04 01:34:00",81288,4.041,287.7,4.44,0.291,12.95,105.5462,13.47,14.44,22.93,0,110.4,13.34,14.27,249.7
"2010-05-04 01:34:30",81289,3.875,280.1,4.586,0.466,13.35,105.5462,13.47,14.45,22.78,0,110.4,13.34,14.27,242.1
"2010-05-04 01:35:00",81290,4.225,260.9,14.27,0.848,13.51,105.5465,13.47,14.46,23.03,0,110.4,13.34,14.27,222.9
"2010-05-04 01:35:30",81291,5.322,265.6,15.37,1.881,14.47,105.5462,13.47,14.45,23.72,0,110.4,13.31,14.27,227.6
"2010-05-04 01:36:00",81292,5.109,269.1,5.082,0.904,14.77,105.5465,13.47,14.61,23.95,0,110.4,13.31,14.27,231.1
"2010-05-04 01:36:30",81293,6.643,275.1,7.165,1.269,16.88,105.5465,13.47,14.65,24.1,0,110.4,13.31,14.27,237.1
"2010-05-04 01:37:00",81294,5.945,276,7.312,1.304,16.55,105.5465,13.47,14.71,24.25,0,110.4,13.31,14.27,238.0
"2010-05-04 01:37:30",81295,4.493,261.2,4.086,0.222,12.23,105.5439,13.46,14.47,24.03,0,110.4,13.34,14.26,223.2
"2010-05-04 01:38:00",81296,5.586,272.2,9.09,1.403,13.87,105.5341,13.44,14.52,24.16,0,110.4,13.3,14.24,234.2
"2010-05-04 01:38:30",81297,5.217,270.4,8.02,1.352,13.7,105.5204,13.4,14.62,24.27,0,110.4,13.3,14.20,232.4
"2010-05-04 01:39:00",81298,4.707,268.1,2.146,0.202,11.89,105.5144,13.39,14.44,24,0,110.4,13.34,14.19,230.1
"2010-05-04 01:39:30",81299,4.692,265.4,1.627,0.096,12.11,105.5168,13.4,14.44,24.14,0,110.4,13.34,14.19,227.4
"2010-05-04 01:40:00",81300,4.572,265.5,1.469,0.117,12.47,105.5174,13.4,14.44,24.03,0,110.4,13.34,14.20,227.5
"2010-05-04 01:40:30",81301,4.319,262.6,4.905,0.371,12.76,105.5177,13.4,14.44,24.07,0,110.4,13.34,14.20,224.6
"2010-05-04 01:41:00",81302,5.639,267.5,5.358,1.062,14.69,105.5183,13.4,14.45,24.16,0,110.4,13.3,14.20,229.5
"2010-05-04 01:41:30",81303,5.081,267.9,4.064,0.696,13.75,105.5158,13.39,14.52,24.18,0,110.4,13.3,14.19,229.9
"2010-05-04 01:42:00",81304,6.503,281.2,5.431,1.17,17.15,105.501,13.35,14.68,24.3,0,110.4,13.3,14.15,243.2
"2010-05-04 01:42:30",81305,6.974,281.9,6.936,1.191,16.94,105.4898,13.33,14.64,24.31,0,110.4,13.3,14.12,243.9
"2010-05-04 01:43:00",81306,5.361,273.3,5.272,0.631,13.11,105.4928,13.33,14.45,24.13,0,110.4,13.3,14.13,235.3
"2010-05-04 01:43:30",81307,7.284,273.3,5.712,1.469,13.98,105.4931,13.33,14.53,24.27,0,110.4,13.29,14.13,235.3
"2010-05-04 01:44:00",81308,7.094,270.9,2.924,0.839,12.26,105.489,13.32,14.46,24.46,0,110.4,13.29,14.12,232.9
"2010-05-04 01:44:30",81309,7.332,274.2,1.949,0.509,12.24,105.4686,13.27,14.35,24.53,0,110.4,13.33,14.07,236.2
"2010-05-04 01:45:00",81310,7.389,274.4,1.849,0.269,12.55,105.4655,13.26,14.33,24.38,0,110.4,13.33,14.06,236.4
"2010-05-04 01:45:30",81311,6.843,270.6,2.058,0.3,12.93,105.4712,13.28,14.31,24.37,0,110.4,13.33,14.08,232.6
"2010-05-04 01:46:00",81312,7.293,275.9,6.156,1.231,14.39,105.4614,13.25,14.29,24.11,0,110.4,13.31,14.05,237.9
"2010-05-04 01:46:30",81313,7.262,273.9,5.498,1.193,16.04,105.4415,13.2,14.52,24.3,0,110.4,13.31,14.00,235.9
"2010-05-04 01:47:00",81314,6.483,268.6,6.41,1.343,16.57,105.4442,13.21,14.54,24.25,0,110.4,13.31,14.01,230.6
"2010-05-04 01:47:30",81315,4.907,269.1,11.37,1.745,15.81,105.4457,13.21,14.37,23.88,0,110.4,13.31,14.01,231.1
"2010-05-04 01:48:00",81316,2.939,252.1,3.76,0.805,12.38,105.4414,13.2,14.23,23.49,0,110.4,13.34,14.00,214.1
"2010-05-04 01:48:30",81317,5.425,265.6,7.81,1.358,13.93,105.4212,13.15,14.28,23.84,0,110.4,13.31,13.95,227.6